Regional Weather Roundup
Issued by NWS

Home | Current Version | Previous Version | Text Only | Print | Product List | Glossary On
Versions: 1 2 3 4 5 6 7 8 9 10 11 12 13 14 15 16 17 18 19 20 21 22 23 24 25 26 27 28 29 30 31 32 33 34 35 36 37 38 39 40 41 42 43 44 45 46 47 48 49 50
000
ASUS43 KDMX 280103
RWRIA

WEATHER ROUNDUP FOR IOWA
NATIONAL WEATHER SERVICE DES MOINES IA
800 PM CDT SAT AUG 27 2016

NOTE: "FAIR" INDICATES FEW OR NO CLOUDS BELOW 12,000 FEET WITH NO
SIGNIFICANT WEATHER AND/OR OBSTRUCTIONS TO VISIBILITY.

* - THESE STATIONS ARE NOT NWS STATIONS...THUS NOT UNDER NWS
QUALITY CONTROL.  THEY ALSO DO NOT REPORT WEATHER SUCH
AS PRECIPITATION OR FOG.

IAZ001>003-012>014-020>022-031>034-043>046-280200-
   NORTHWEST IOWA

CITY           SKY/WX    TMP DP  RH WIND       PRES   REMARKS
CARROLL *      CLEAR     72  68  88 CALM      30.02R
CHEROKEE *     CLEAR     72  67  84 CALM      30.01R
DENISON *      CLEAR     73  68  83 MISG      30.00R
LE MARS *      CLEAR     75  66  73 SE5       30.00S
ORANGE CITY *  CLEAR     72  66  83 CALM      30.01S
SHELDON *      CLEAR     68  66  94 SE6       30.00R
SIOUX CITY     CLEAR     75  66  73 SE3       29.99R
SPENCER        CLEAR     70  64  81 CALM      30.02R
STORM LAKE *   CLEAR     70  66  88 CALM      30.03R
$$

IAZ055>058-069>071-079>083-090>094-280200-
   SOUTHWEST IOWA

CITY           SKY/WX    TMP DP  RH WIND       PRES   REMARKS
ATLANTIC *     CLEAR     73  68  83 S3        30.02R
AUDUBON *      CLEAR     72  66  83 CALM      30.04R
CLARINDA *       N/A     77  72  83 MISG      30.03R
COUNCIL BLFS * CLEAR     75  68  78 SE5       30.00S
CRESTON *      CLEAR     73  70  88 S3        30.04S
HARLAN  *      CLEAR     73  68  83 CALM      30.04R
LAMONI         CLEAR     77  69  76 CALM      30.03R
RED OAK *      CLEAR     77  70  78 CALM      30.01R
SHENANDOAH *   CLEAR     75 -35   1 SE5       30.01R
$$

IAZ047>049-059>061-072>074-084-280200-
   CENTRAL IOWA

CITY           SKY/WX    TMP DP  RH WIND       PRES   REMARKS
AMES           CLEAR     71  70  96 CALM      30.02R
ANKENY *         N/A    N/A N/A N/A MISG        N/A
BOONE *        CLEAR     72  68  88 CALM      30.02R
CHARITON *       N/A     75  68  78 MISG      30.03R
DES MOINES     MOCLDY    78  70  76 S5        30.01R HX  80
GRINNELL*      CLEAR     74  68  82 CALM      30.04S
KNOXVILLE *    PTCLDY    77  70  78 CALM      30.02R
MARSHALLTOWN   CLEAR     72  68  87 SE3       30.02S
NEWTON *       CLEAR     73  72  94 E3        30.02S
PERRY *          N/A     71  71  98 CALM      30.02R
$$

IAZ004>006-015-016-023>025-035-036-280200-
   NORTH CENTRAL IOWA

CITY           SKY/WX    TMP DP  RH WIND       PRES   REMARKS
ALGONA *       CLEAR     72  68  88 S3        30.02S
ESTHERVILLE    CLEAR     68  66  93 CALM      30.01S
FORT DODGE *   CLEAR     72  64  78 S3        30.03R
MASON CITY     MOCLDY    71  67  87 S3        30.04R
FOREST CITY *    N/A    N/A N/A N/A MISG        N/A
WEBSTER CITY * CLEAR     68  68 100 SE5       30.01R
IOWA FALLS *     N/A     71  66  85 S5        30.04R
$$

IAZ007>011-017>019-026>030-037>042-050>054-066-280200-
   NORTHEAST IOWA

CITY           SKY/WX    TMP DP  RH WIND       PRES   REMARKS
CEDAR RAPIDS   PTCLDY    75  71  87 NW3       30.03R
CHARLES CITY * PTCLDY    68  68 100 CALM      30.04R
CLINTON *      CLEAR     74  71  91 NE3       30.04R
DECORAH *      CLEAR     68  68 100 CALM      30.03S
DUBUQUE        CLEAR     72  69  90 CALM      30.05R
MONTICELLO *   PTCLDY    73  70  88 N3        30.04R
OELWEIN *      CLEAR     70  68  94 CALM      30.05R
WATERLOO       PTCLDY    72  66  81 SE3       30.02R
$$

IAZ064-065-067-068-078-280200-
   EAST CENTRAL IOWA

CITY           SKY/WX    TMP DP  RH WIND       PRES   REMARKS
DAVENPORT      MOCLDY    76  71  85 NE3       30.04R
IOWA CITY      PTCLDY    80  69  69 N6        30.03R HX  83
MT. PLEASANT * PTCLDY    80  74  81 SW5       30.02R HX  85
MUSCATINE *    CLEAR     77  73  88 N5        30.02R
QUAD CITIES    RAIN      79  73  82 CALM      30.02R HX  82
$$

IAZ062-063-075>077-085>089-095>099-280200-
   SOUTHEAST IOWA

CITY           SKY/WX    TMP DP  RH WIND       PRES   REMARKS
BURLINGTON     CLEAR     79  74  84 SW5       30.02R HX  82
FAIRFIELD *    CLEAR     75  70  83 W5        30.02R
FORT MADISON *   N/A     75  73  94 CALM      30.03R
KEOKUK *       CLEAR     81  73  78 S5        30.01S HX  85
OSKALOOSA *      N/A     75  69  82 CALM      30.03R
CENTERVILLE *    N/A     73  72  94 CALM      30.05R
OTTUMWA        CLEAR     74  69  85 S3        30.01R
WASHINGTON *   CLEAR     77  72  83 W5        30.03R
$$

ABBREVIATIONS USED IN REMARKS
   TC - TEMPERATURES IN CELSIUS
  WCI - WIND CHILL INDEX
   HX - HEAT INDEX
  VSB - VISIBILITY
$$





USA.gov is the U.S. government's official web portal to all federal, state and local government web resources and services.